Rome, OR

9:39 PM MDT on March 23, 2017 (GMT -0600)
Rome State

Weather History for KREO - October, 2011

Change the Weather History Date:

Thursday, October 27, 2011

  Actual Average Record
Temperature  
Mean Temperature 42 °F 44 °F  
Max Temperature 59 °F 59 °F 81 °F (2003)
Min Temperature 25 °F 29 °F 22 °F (1970)
Degree Days  
Heating Degree Days 23 21  
Month to date heating degree days 399 446  
Since 1 July heating degree days 472 670  
Cooling Degree Days 0 0  
Month to date cooling degree days 3 0  
Year to date cooling degree days 430 506  
Moisture  
Dew Point 13 °F    
Average Humidity 38    
Maximum Humidity 63    
Minimum Humidity 13    
Precipitation  
Precipitation 0.00 in 0.03 in 0.45 in (1961)
Month to date precipitation 0.92 0.63  
Year to date precipitation 9.69 7.36  
Sea Level Pressure  
Sea Level Pressure 30.23 in    
Wind  
Wind Speed 4 mph (SSE)    
Max Wind Speed 10 mph    
Max Gust Speed -    
T = Trace of Precipitation, MM = Missing Value Source: NWS Daily Summary

Daily Weather History Graph

Daily Weather History Graph

Search for Another Location

Airport or City:

Trip Planner

Search our weather history database for the weather conditions in past years. The results will help you decide how hot, cold, wet, or windy it might be!

Date:

Astronomy

Oct. 27, 2011 Rise Set
Actual Time 7:18 AM PDT 5:51 PM PDT
Civil Twilight 6:49 AM PDT 6:20 PM PDT
Nautical Twilight 6:16 AM PDT 6:53 PM PDT
Astronomical Twilight 5:44 AM PDT 7:26 PM PDT
Moon 8:30 AM PDT (10/27) 6:21 PM PDT (10/27)
Length of Visible Light 11h 30m
Length of Day
10h 32m
New Moon, 1% of the Moon is Illuminated
Oct 27
New Moon
Nov 2
First Quarter
Nov 10
Full
Nov 18
Last Quarter
Nov 24
New

Hourly Weather History & Observations

Time (PDT) Temp. Windchill Dew Point Humidity Pressure Visibility Wind Dir Wind Speed Gust Speed Precip Events Conditions
12:52 AM 39.9 °F - 17.1 °F 40% 30.23 in - Calm Calm - N/A   Unknown
1:52 AM 39.0 °F - 17.1 °F 41% 30.25 in - Calm Calm - N/A   Unknown
2:52 AM 37.0 °F 31.6 °F 17.1 °F 44% 30.23 in - SSE 6.9 mph - N/A   Unknown
3:52 AM 33.1 °F 26.1 °F 15.1 °F 48% 30.23 in - SSE 8.1 mph - N/A   Unknown
4:52 AM 28.9 °F 19.8 °F 14.0 °F 54% 30.24 in - SE 10.4 mph - N/A   Unknown
5:52 AM 27.0 °F 18.7 °F 15.1 °F 61% 30.25 in - South 8.1 mph - N/A   Unknown
6:52 AM 27.0 °F 18.7 °F 14.0 °F 58% 30.29 in - SSE 8.1 mph - N/A   Unknown
7:52 AM 30.0 °F 23.2 °F 15.1 °F 54% 30.28 in - SSE 6.9 mph - N/A   Unknown
8:52 AM 39.9 °F 35.8 °F 16.0 °F 38% 30.26 in - SSE 5.8 mph - N/A   Unknown
9:52 AM 41.0 °F - 18.0 °F 40% 30.27 in - Calm Calm - N/A   Unknown
10:52 AM 48.0 °F - 12.9 °F 24% 30.24 in - Variable 3.5 mph - N/A   Unknown
11:52 AM 52.0 °F - 10.9 °F 19% 30.21 in - SW 4.6 mph - N/A   Unknown
12:52 PM 55.9 °F - 9.0 °F 15% 30.19 in - WNW 3.5 mph - N/A   Unknown
1:52 PM 57.0 °F - 10.0 °F 15% 30.18 in - WNW 4.6 mph - N/A   Unknown
2:52 PM 57.9 °F - 8.1 °F 14% 30.16 in - Variable 3.5 mph - N/A   Unknown
3:52 PM 57.9 °F - 8.1 °F 14% 30.17 in - Calm Calm - N/A   Unknown
4:52 PM 57.0 °F - 7.0 °F 14% 30.18 in - Calm Calm - N/A   Unknown
5:52 PM 45.0 °F 41.2 °F 12.0 °F 26% 30.22 in - East 6.9 mph - N/A   Unknown
6:52 PM 43.0 °F 37.7 °F 12.0 °F 28% 30.25 in - East 9.2 mph - N/A   Unknown
7:52 PM 35.1 °F 31.0 °F 14.0 °F 42% 30.25 in - ESE 4.6 mph - N/A   Unknown
8:52 PM 32.0 °F 28.7 °F 14.0 °F 48% 30.25 in - South 3.5 mph - N/A   Unknown
9:52 PM 27.0 °F - 12.9 °F 56% 30.26 in - Calm Calm - N/A   Unknown
10:52 PM 30.9 °F - 14.0 °F 50% 30.24 in - Calm Calm - N/A   Unknown
11:52 PM 27.0 °F - 12.9 °F 56% 30.25 in - Calm Calm - N/A   Unknown